Regional Weather Roundup
Issued by NWS

Home | Current Version | Previous Version | Graphics & Text | Print | Product List | Glossary On
Versions: 1 2 3 4 5 6 7 8 9 10 11 12 13 14 15 16 17 18 19 20 21 22 23 24 25 26 27 28 29 30 31 32 33 34 35 36 37 38 39 40 41 42 43 44 45 46 47 48 49 50
000
ASUS43 KOAX 270710
RWRNE

WEATHER ROUNDUP FOR NEBRASKA
NATIONAL WEATHER SERVICE OMAHA NE
100 AM CST SAT DEC 27 2014

NOTES: SATELLITE DATA IS BEING USED TO AUGMENT CLOUD COVER ABOVE
       12000 FEET.
       "FAIR" INDICATES FEW OR NO CLOUDS BELOW 12,000 FEET WITH NO
       SIGNIFICANT WEATHER AND/OR OBSTRUCTIONS TO VISIBILITY.

  * THESE STATIONS DO NOT REPORT WEATHER SUCH AS RAIN...SNOW OR FOG.

NEZ001>004-019>022-054>056-270800-
NEBRASKA PANHANDLE

CITY           SKY/WX    TMP DP  RH WIND       PRES   REMARKS
SCOTTSBLUFF    CLOUDY    15  13  91 NW5       30.12S WCI   8
ALLIANCE       CLOUDY    17  15  92 W5        30.10S WCI  10
CHADRON        CLOUDY    17  14  88 SW5       30.14F WCI  10
KIMBALL        PTCLDY     8   6  90 W8        30.06S WCI  -5
SIDNEY         LGT SNOW  15  11  83 W9        30.10F FOG     WCI   3
$$

NEZ057>060-069>072-079>082-270800-
SOUTHWEST NEBRASKA

CITY           SKY/WX    TMP DP  RH WIND       PRES   REMARKS
NORTH PLATTE   LGT SNOW  14  11  87 NW8       30.15F FOG     WCI   3
IMPERIAL       CLOUDY    14  10  84 W7        30.15F WCI   4
LEXINGTON      MOCLDY    16  14  90 NW9       30.15S WCI   5
MCCOOK         CLEAR     14  11  87 NW10      30.17S WCI   1
OGALLALA       LGT SNOW  17  15  93 W7        30.14F WCI   8
$$

NEZ005>010-023>029-035>040-094-270800-
NORTH CENTRAL NEBRASKA

CITY           SKY/WX    TMP DP  RH WIND       PRES   REMARKS
VALENTINE      LGT SNOW  17  13  84 W6        30.14F FOG     WCI   9
AINSWORTH      LGT SNOW  16  14  91 NW5       30.12F WCI   9
BROKEN BOW     LGT SNOW  19  16  88 NW7       30.13S FOG     WCI  10
O`NEILL        LGT SNOW  19  17  94 NW14      30.13S WCI   5
ORD            LGT SNOW  19  16  88 NW8       30.13F FOG     WCI   9
THEDFORD       LGT SNOW  17  14  89 NW7       30.13F WCI   7
$$

NEZ041-046>049-061>064-073>077-083>087-270800-
SOUTH CENTRAL NEBRASKA

CITY           SKY/WX    TMP DP  RH WIND       PRES   REMARKS
GRAND ISLAND   FLURRIES  19  16  88 NW12      30.13S WCI   7
AURORA         FLURRIES  22  19  91 NW16      30.11S WCI   8
HASTINGS       FLURRIES  20  16  84 NW13      30.11S WCI   7
HEBRON         FLURRIES  24  20  84 NW9G16    30.12R WCI  15
HOLDREGE       CLEAR     17  15  89 NW10      30.13F WCI   5
KEARNEY *      MOCLDY    18  14  86 W13       30.14R WCI   4
YORK           LGT SNOW  23  21  93 N15       30.09F WCI  10
$$

NEZ011>018-030>034-042>045-270800-
NORTHEAST NEBRASKA

CITY           SKY/WX    TMP DP  RH WIND       PRES   REMARKS
NORFOLK        LGT SNOW  22  20  92 NW14      30.09S FOG     WCI   9
ALBION         LGT SNOW  21  17  85 NW14      30.11S WCI   8
BLAIR          CLOUDY    28  25  88 NW14      30.03R WCI  17
COLUMBUS *     MOCLDY    23  16  74 NW16      30.11R WCI  10
FREMONT        LGT SNOW  27  25  93 NW13      30.06F WCI  16
TEKAMAH        LGT SNOW  27  24  89 NW17      30.06S FOG     WCI  14
WAYNE          LGT SNOW  23  20  89 NW14      30.09S WCI  11
$$

NEZ050>053-065>068-078-088>093-270800-
SOUTHEAST NEBRASKA

CITY           SKY/WX    TMP DP  RH WIND       PRES   REMARKS
LINCOLN        FLURRIES  27  23  85 NW13      30.09R WCI  16
OMAHA EPPLEY   FLURRIES  29  27  92 NW17      30.05R WCI  17
BEATRICE       CLOUDY    27  24  89 NW16G22   30.08R WCI  14
FALLS CITY     CLOUDY    33  31  92 W13       30.04R WCI  24
NEBRASKA CITY  CLOUDY    31  31 100 NW10      30.04R WCI  23
PLATTSMOUTH    CLOUDY    30  28  92 NW15      30.03R WCI  19
$$

NEZ044-045-051>053-067-270800-
OMAHA AREA

CITY           SKY/WX    TMP DP  RH WIND       PRES   REMARKS
OMAHA EPPLEY   FLURRIES  29  27  92 NW17      30.05R WCI  17
BLAIR          CLOUDY    28  25  88 NW14      30.03R WCI  17
FREMONT        LGT SNOW  27  25  93 NW13      30.06F WCI  16
MILLARD        CLOUDY    30  26  85 NW13G18   30.05R WCI  20
OFFUTT AFB     CLOUDY    30  27  86 NW15      30.03S WCI  19
PLATTSMOUTH    CLOUDY    30  28  92 NW15      30.03R WCI  19
WAHOO          FLURRIES  26  23  87 N16       30.06S WCI  14
$$



USA.gov is the U.S. government's official web portal to all federal, state and local government web resources and services.